Vorticity
nan nan nan nan nan nan nan nan nan nan nan nan nan nan nan nan nan nan nan nan nan nan nan nan nan nan nan nan nan nan nan nan nan nan nan nan nan nan nan nan nan nan nan nan nan nan nan nan nan nan nan nan nan nan nan nan nan nan nan nan nan nan nan nan nan nan nan nan nan
nan 9 10 10 9 9 8 9 9 9 9 9 8 9 9 8 8 8 8 9 9 9 9 8 6 7 7 9 11 11 11 10 11 12 11 9 9 10 10 10 9 9 10 10 11 11 9 9 11 10 8 6 6 7 7 6 6 6 5 9 11 8 7 7 7 7 9 11 nan
nan 7 8 9 11 11 10 10 11 11 11 10 9 9 9 9 8 8 8 8 9 10 10 8 6 7 8 10 12 11 11 11 11 11 10 7 7 8 9 9 8 9 10 10 10 11 10 10 10 9 8 6 6 7 7 6 7 7 6 9 11 9 8 7 7 10 11 9 nan
nan 6 6 7 9 10 11 12 11 11 10 9 9 8 8 9 9 8 8 8 8 9 9 9 8 8 8 9 11 11 11 10 9 9 8 6 6 6 7 8 8 8 9 9 9 10 10 10 10 8 7 6 7 7 7 6 7 8 9 9 9 8 8 8 8 10 10 7 nan
nan 6 7 7 6 7 9 11 10 9 9 9 9 9 9 8 8 8 8 8 8 8 8 9 10 9 8 9 10 10 9 9 8 7 6 6 6 6 6 7 8 8 8 8 8 9 9 10 10 8 7 7 7 6 5 6 8 9 10 9 8 8 8 8 8 8 8 8 nan
nan 7 8 8 7 7 8 9 8 8 8 9 10 10 10 9 9 8 9 8 8 7 8 9 10 9 8 9 9 9 8 8 7 6 6 6 7 6 7 7 8 8 8 7 7 8 9 10 10 8 8 8 7 6 5 7 9 9 9 9 9 9 8 8 9 7 6 5 nan
nan 7 7 8 8 8 9 9 8 7 8 7 8 9 10 10 9 9 9 9 8 8 8 8 7 8 8 8 8 8 8 7 6 6 7 7 6 7 8 8 8 8 8 8 8 8 9 10 9 9 8 8 7 6 6 7 8 8 8 8 9 9 8 9 9 7 4 3 nan
nan 6 7 7 7 8 9 10 9 9 8 7 6 6 7 7 8 8 9 9 8 8 8 7 6 7 8 8 7 7 7 7 7 7 7 7 6 7 8 9 9 9 9 9 9 8 9 10 9 8 8 8 7 6 6 6 7 7 7 9 10 9 8 8 7 6 5 5 nan
nan 7 8 8 8 8 8 9 9 9 9 8 6 6 6 6 7 8 9 9 8 8 8 7 5 6 7 7 7 7 7 7 7 7 7 7 7 8 9 9 8 9 10 11 10 9 10 10 8 8 7 8 7 6 5 6 7 7 8 9 9 8 8 7 6 6 6 7 nan
nan 9 9 9 8 8 8 8 7 8 8 7 6 7 7 7 8 8 9 8 7 8 8 7 6 6 7 7 7 7 8 8 7 7 8 8 8 8 9 8 7 9 10 11 11 11 11 10 7 7 7 6 6 6 6 6 7 7 8 8 7 6 7 8 8 8 8 8 nan
nan 9 10 9 9 8 8 7 6 6 6 6 7 7 8 8 8 9 9 9 8 8 8 8 8 8 8 8 7 8 8 8 7 7 7 8 8 8 8 7 7 8 9 10 12 12 11 8 6 6 7 7 8 8 8 7 6 7 7 7 6 7 8 8 9 9 9 7 nan
nan 9 9 10 9 8 8 6 6 6 7 7 7 8 8 8 8 9 9 9 9 9 8 9 9 9 10 9 8 8 8 7 8 8 8 8 8 9 9 8 7 8 9 11 12 11 9 7 6 6 7 8 9 9 8 7 7 7 7 7 7 8 7 8 9 10 8 7 nan
nan 8 9 9 8 8 7 7 7 7 7 7 8 8 8 7 8 8 8 8 9 9 8 9 10 10 10 9 9 8 8 8 8 8 8 8 9 9 9 8 8 8 9 11 10 9 8 7 7 7 7 8 8 7 7 7 7 7 7 8 8 8 7 7 8 8 8 7 nan
nan 8 8 8 8 7 7 7 7 7 7 7 8 8 8 8 8 8 8 7 8 9 9 9 10 10 8 8 9 8 8 8 8 8 8 9 9 8 9 8 8 9 9 9 8 8 8 8 9 9 8 8 7 7 8 9 8 8 8 8 8 8 7 7 7 8 8 8 nan
nan 7 7 7 7 7 7 7 7 7 7 7 8 8 8 8 8 8 7 7 8 9 9 9 9 8 8 8 9 9 9 9 8 8 8 9 8 8 9 8 8 9 8 8 8 8 9 10 10 10 10 9 8 8 10 10 9 9 8 8 8 8 8 7 8 8 8 8 nan
nan 7 7 7 7 7 7 7 7 7 7 7 7 8 8 8 7 7 7 8 9 9 7 8 9 9 8 8 9 9 9 9 8 8 8 8 8 8 8 8 8 8 8 8 8 9 9 10 11 11 10 10 9 9 10 11 10 9 8 8 8 8 8 8 8 8 8 8 nan
nan 7 7 7 7 7 7 7 7 7 6 6 7 7 8 8 7 7 7 8 8 7 6 8 9 9 8 8 9 9 9 8 8 8 8 7 7 8 8 8 8 8 8 9 9 9 9 10 11 11 11 11 11 11 11 12 11 10 9 8 8 9 9 9 9 8 8 8 nan
nan 7 7 7 7 6 6 6 6 6 6 5 6 6 7 7 7 7 7 7 7 6 7 8 9 9 8 8 9 10 9 8 7 7 7 7 8 8 8 8 8 9 9 9 9 9 9 10 11 11 11 11 11 12 12 12 12 11 10 9 9 9 10 10 10 10 9 8 nan
nan 7 7 7 6 6 5 5 5 5 5 5 5 6 6 6 6 7 7 7 7 7 7 8 9 8 7 8 9 10 9 8 7 7 8 8 8 8 8 8 9 9 10 10 10 10 10 11 11 11 10 10 10 11 12 13 13 12 11 10 9 10 10 11 11 10 9 8 nan
nan 7 7 7 6 5 5 5 5 5 5 5 6 6 6 6 6 6 6 7 8 8 8 8 8 8 7 8 8 9 10 9 7 8 9 9 9 9 9 9 9 10 10 11 11 11 11 11 10 10 10 9 10 10 12 14 14 13 12 11 9 9 9 10 10 9 9 8 nan
nan 8 7 6 6 6 5 5 5 6 6 6 7 7 7 7 7 6 6 7 8 8 8 8 8 7 7 8 8 9 11 10 8 9 10 10 10 10 10 10 10 10 11 11 10 10 10 10 10 10 10 10 10 10 11 13 14 14 13 11 9 8 9 9 9 8 8 7 nan
nan 8 8 6 6 6 6 6 6 7 7 7 8 8 7 7 7 7 8 8 8 8 8 9 8 8 8 8 8 9 10 9 8 9 10 10 10 10 11 10 10 10 10 11 11 11 11 10 10 10 10 10 9 9 10 11 13 14 13 10 8 8 7 8 7 7 7 7 nan
nan 8 8 8 7 7 7 7 7 7 8 8 8 8 8 7 7 8 8 8 8 8 9 10 9 8 8 8 8 8 9 8 8 9 10 10 10 10 11 11 11 11 12 12 11 10 10 11 11 11 11 10 9 10 10 12 14 14 12 10 8 7 6 6 7 7 8 8 nan
nan 8 7 8 8 8 7 7 8 8 8 9 8 8 8 7 8 8 8 8 8 8 9 9 8 8 9 10 9 9 9 8 9 9 10 10 11 11 12 13 12 13 13 11 7 6 8 10 10 11 12 11 11 10 11 12 14 13 11 9 7 6 6 6 8 9 9 9 nan
nan 7 7 7 8 8 8 7 8 8 8 8 8 8 7 8 8 8 7 8 8 8 8 8 9 10 10 10 9 9 9 9 9 9 10 11 11 12 13 14 13 13 12 6 1 3 7 9 9 10 11 12 12 12 12 14 15 13 11 8 7 6 7 8 10 12 11 11 nan
nan 8 8 8 8 8 8 7 7 7 8 8 8 8 8 8 8 7 7 8 8 9 9 10 10 10 10 9 8 9 10 10 9 9 10 10 11 12 13 13 13 12 8 2 1 4 8 10 12 13 13 14 15 14 14 16 16 14 11 8 8 8 9 10 12 12 13 11 nan
nan 9 9 9 8 8 7 7 7 7 8 8 8 8 8 8 8 8 8 8 9 10 10 11 11 11 10 9 7 8 9 9 9 10 11 11 11 12 13 13 12 10 5 1 2 6 9 11 13 16 19 20 19 18 16 15 15 14 12 11 11 11 11 11 12 12 11 9 nan
nan 9 10 10 9 9 8 7 7 8 8 8 8 7 7 8 8 8 9 9 9 10 11 11 11 12 11 8 7 7 8 9 11 11 11 11 11 12 13 13 11 8 3 1 5 8 10 11 14 18 24 26 22 18 15 14 14 13 12 12 12 12 11 11 10 9 8 7 nan
nan 9 10 11 10 9 9 7 7 8 8 8 8 8 8 8 9 9 9 9 9 9 10 11 10 9 7 5 6 8 9 11 12 11 10 10 12 13 13 12 10 7 4 3 6 9 10 13 16 19 22 25 22 16 13 13 11 11 10 10 9 8 7 7 7 6 6 8 nan
nan 10 11 11 11 10 9 8 8 8 8 8 8 8 8 9 9 9 9 8 9 9 9 8 7 5 5 6 8 9 10 11 11 10 10 11 12 12 12 12 10 8 5 5 7 9 11 14 16 17 17 17 16 13 11 10 9 8 8 7 5 5 6 6 6 6 8 8 nan
nan 11 12 11 11 10 10 9 8 8 8 7 8 8 9 9 9 9 9 9 9 9 8 7 6 6 6 8 9 9 9 10 10 11 11 12 12 12 11 11 10 8 5 5 8 10 12 14 15 13 12 11 11 9 8 7 7 7 7 5 5 6 8 9 8 8 7 8 nan
nan 12 12 12 11 10 10 9 9 8 7 7 8 9 10 9 9 9 9 9 9 8 8 7 7 7 8 9 10 9 10 10 10 11 12 12 12 12 12 12 11 8 4 6 11 13 14 13 12 10 8 7 6 6 5 6 7 7 7 6 6 7 10 10 8 6 7 10 nan
nan 12 12 12 11 11 10 9 8 8 8 8 10 10 10 10 9 9 9 10 9 8 8 8 8 9 10 10 10 10 11 11 11 12 12 13 13 13 14 13 10 5 3 7 15 16 16 13 9 7 6 5 4 3 4 7 8 8 7 6 6 6 7 8 9 8 9 11 nan
nan 12 12 12 12 12 11 10 8 8 8 10 11 10 10 9 8 9 9 10 9 8 8 8 9 10 11 11 11 11 12 11 11 12 13 14 15 14 14 14 8 1 2 10 16 17 16 13 9 7 6 5 3 2 3 7 9 7 6 6 6 7 8 9 10 10 10 11 nan
nan 12 11 11 12 12 12 10 9 9 9 10 11 10 10 8 8 8 9 10 9 8 8 9 10 11 12 12 11 11 11 11 12 13 14 15 15 14 13 11 6 1 3 10 14 14 13 12 10 11 12 9 5 4 5 8 10 8 7 7 8 8 9 11 11 11 10 11 nan
nan 11 11 11 12 12 12 11 10 10 9 9 10 9 9 8 8 9 10 10 9 8 9 10 10 11 11 11 12 12 12 13 14 15 15 15 14 12 11 9 6 3 3 8 10 9 8 8 10 14 19 16 8 7 8 10 10 7 7 8 8 8 10 12 12 11 11 10 nan
nan 12 11 11 12 12 12 12 11 10 9 9 9 8 8 8 9 11 11 10 8 8 9 10 10 10 10 12 13 13 14 15 16 16 15 15 12 11 10 8 6 4 2 4 6 6 6 6 8 14 22 20 12 10 11 11 9 6 6 8 9 9 12 13 12 11 11 9 nan
nan 13 12 11 11 12 12 11 10 9 8 8 8 8 8 8 10 11 11 9 7 8 10 10 10 10 11 12 14 14 15 16 16 15 14 13 11 10 9 8 7 5 1 1 4 6 7 6 8 12 20 20 16 15 14 11 7 6 7 9 9 10 13 14 12 11 9 8 nan
nan 14 13 12 11 12 12 11 9 8 8 9 8 8 8 9 9 10 10 9 8 9 10 10 10 11 12 14 15 15 15 14 14 13 13 11 10 9 8 8 6 5 1 -0 3 5 7 8 9 12 20 22 20 19 15 8 5 5 8 10 10 11 13 14 13 11 9 8 nan
nan 14 13 12 12 12 11 10 9 8 9 9 8 9 10 10 9 9 10 10 10 11 11 11 11 12 14 15 15 13 12 11 11 11 11 10 8 7 7 7 6 4 2 1 2 5 7 9 9 13 22 24 21 19 14 6 4 5 9 11 12 13 13 13 13 11 10 10 nan
nan nan nan nan nan nan nan nan nan nan nan nan nan nan nan nan nan nan nan nan nan nan nan nan nan nan nan nan nan nan nan nan nan nan nan nan nan nan nan nan nan nan nan nan nan nan nan nan nan nan nan nan nan nan nan nan nan nan nan nan nan nan nan nan nan nan nan nan nan
CAPE
nan nan nan nan nan nan nan nan nan nan nan nan nan nan nan nan nan nan nan nan nan nan nan nan nan 0 0 2 3 3 4 7 4 nan nan nan nan nan nan nan nan nan nan nan nan nan nan 0 nan nan nan nan nan 0 0 5 4 0 0 0 0 1 1 1 1 1 1 2 2
nan nan nan nan nan nan nan nan nan nan nan nan nan nan nan nan nan nan nan nan nan nan nan nan nan nan nan 1 3 3 4 5 1 nan nan nan nan nan nan nan nan nan nan nan nan nan nan 0 nan nan nan nan nan nan nan 5 7 0 0 0 0 0 0 nan 0 0 1 1 3
nan nan nan nan nan nan nan nan nan nan nan nan nan nan nan nan nan nan nan nan nan nan nan nan nan nan nan 0 3 3 4 3 0 nan nan nan nan nan nan nan nan nan nan nan nan nan nan 0 nan nan nan nan nan nan nan nan nan nan nan nan nan nan nan nan nan nan nan 0 2
nan nan nan nan nan nan nan nan nan nan nan nan nan nan nan nan nan nan nan nan nan nan nan nan nan nan nan 0 3 3 6 nan nan nan nan nan nan nan nan nan 0 nan nan nan nan nan nan nan nan nan nan nan nan nan nan nan nan nan nan nan nan nan nan nan nan nan nan nan 0
nan nan nan nan nan nan nan nan nan nan nan nan nan nan nan nan nan nan nan nan nan nan nan nan nan nan nan 0 3 3 3 nan nan nan nan nan 0 1 1 3 2 1 1 0 nan nan nan nan nan nan nan nan nan nan nan nan nan nan nan nan nan nan nan nan nan nan nan nan nan
nan nan nan nan nan nan nan nan nan nan nan nan nan nan nan nan nan nan nan nan nan nan nan nan nan nan nan 1 3 3 1 0 nan nan nan 1 4 6 6 8 6 9 9 4 0 0 0 0 nan nan nan nan 0 nan nan nan nan nan nan nan nan nan nan nan nan nan nan nan 0
nan nan nan nan nan nan nan nan nan nan nan nan nan nan nan nan nan nan nan nan nan nan nan nan nan nan nan 0 1 1 0 0 0 1 1 4 10 5 5 10 11 13 13 11 8 8 6 5 nan nan nan nan nan nan nan nan nan nan nan nan nan nan nan nan nan nan nan nan 0
nan nan nan nan nan nan nan nan nan nan nan nan nan nan nan nan nan nan nan nan nan nan nan nan nan 0 0 nan nan nan nan nan 0 3 3 6 8 10 10 7 8 10 10 17 23 23 17 10 0 0 1 0 nan nan nan nan nan nan nan nan nan nan nan nan nan nan nan nan 3
nan nan nan nan nan nan nan nan nan nan nan nan nan nan nan nan nan nan nan nan nan nan nan nan nan nan nan nan nan nan nan nan nan 1 1 3 4 9 9 10 9 11 11 20 22 22 31 20 6 6 10 1 nan 6 6 3 3 1 1 nan nan nan nan nan nan nan nan 0 7
nan nan nan nan nan nan nan nan nan nan nan nan nan nan nan nan nan nan nan nan nan nan nan nan nan nan nan nan nan nan nan nan nan 1 1 2 2 7 7 11 16 16 16 19 18 18 29 33 35 35 31 26 19 15 15 9 5 5 5 nan nan nan nan nan nan nan nan nan 8
nan nan nan nan nan nan nan nan nan nan nan nan nan nan nan nan nan nan nan nan nan nan nan nan nan nan nan nan nan nan nan nan nan 0 0 3 2 12 12 17 21 28 28 21 8 8 11 30 43 43 40 39 29 21 21 7 2 7 7 nan nan nan nan nan nan nan nan 0 6
nan nan nan nan nan nan nan nan nan nan nan nan nan nan nan nan nan nan nan nan nan nan nan nan nan nan nan nan nan nan nan nan nan nan nan 2 16 19 19 25 30 30 30 18 5 5 7 17 32 32 49 57 54 34 34 6 2 3 3 0 nan nan nan nan nan nan 2 3 13
nan nan nan nan nan nan nan nan nan nan nan nan nan nan nan nan nan nan nan nan nan nan nan nan nan nan nan nan nan nan nan nan nan nan nan 7 28 25 25 27 26 25 25 19 9 9 5 12 31 31 49 59 69 59 59 20 6 2 2 0 0 0 0 1 2 2 4 5 15
nan nan nan nan nan nan nan nan nan nan nan nan nan nan nan nan nan nan nan nan nan nan nan nan nan nan nan nan nan nan nan nan nan 4 4 19 25 19 19 21 20 25 25 30 24 24 12 11 24 24 43 57 74 75 75 40 12 2 2 0 0 1 1 5 5 5 4 4 7
nan nan nan nan nan nan nan nan nan nan nan nan nan nan nan nan nan nan nan nan nan nan nan nan nan nan nan nan nan nan nan 1 5 13 13 14 18 14 14 16 24 32 32 42 39 39 25 17 17 17 28 46 69 79 79 60 22 5 5 3 4 4 4 5 4 4 4 3 6
nan nan nan nan nan nan nan nan nan nan nan nan nan nan nan nan nan nan nan nan nan nan nan nan nan nan nan nan nan nan nan 4 6 9 9 8 10 12 12 18 25 38 38 42 45 45 33 25 15 15 15 27 49 73 73 77 51 20 20 8 5 7 7 7 7 7 4 2 5
nan nan nan nan nan nan nan nan nan nan nan nan nan nan nan nan nan nan nan nan nan nan nan nan nan nan nan nan nan nan nan 2 4 2 2 4 7 10 10 16 22 36 36 40 42 42 33 28 18 18 12 18 34 64 64 88 77 36 36 10 6 6 6 3 2 2 2 0 2
nan nan nan nan nan nan nan nan nan nan nan nan nan nan nan nan nan nan nan nan nan nan nan nan nan nan nan nan nan nan nan nan nan nan nan 1 4 7 7 12 15 21 21 22 21 21 18 12 9 9 18 27 45 57 57 64 64 34 34 10 3 2 2 2 3 3 2 2 5
nan nan nan nan nan nan nan nan nan nan nan nan nan nan nan nan nan nan nan nan nan nan nan nan nan nan nan nan nan nan nan nan nan nan nan 2 4 6 6 10 13 15 15 19 18 18 16 11 7 7 14 19 28 40 40 51 45 32 32 14 5 3 3 4 3 3 2 1 2
nan nan nan nan nan nan nan nan nan nan nan nan nan nan nan nan nan nan nan nan nan nan nan nan nan nan nan nan nan nan nan nan nan nan nan 0 2 4 4 7 10 16 16 16 14 14 9 7 5 5 10 13 15 29 29 54 71 42 42 17 3 0 0 nan nan nan 0 0 0
nan nan nan nan nan nan nan nan nan nan nan nan nan nan nan nan nan nan nan nan nan nan nan nan nan nan nan nan nan nan nan nan nan nan nan nan 0 4 4 6 7 11 11 13 10 10 5 4 13 13 19 18 16 18 18 28 44 28 28 8 1 nan nan nan nan nan nan 0 0
nan nan nan nan nan nan nan nan nan nan nan nan nan nan nan nan nan nan nan nan nan nan nan nan nan nan nan nan nan nan nan nan nan nan nan nan 0 1 1 2 5 12 12 17 16 16 12 18 27 27 34 21 15 10 10 8 21 21 21 4 0 nan nan nan nan nan nan nan nan
nan nan nan nan nan nan nan nan nan nan nan nan nan nan nan nan nan nan nan nan nan nan nan nan nan nan nan nan nan nan nan nan nan nan nan nan nan 0 0 4 10 16 16 17 16 16 17 32 40 40 49 32 16 5 5 5 9 5 5 1 1 5 5 4 1 1 1 2 0
nan nan nan nan nan nan nan nan nan nan nan nan nan nan nan nan nan nan nan nan nan nan nan nan nan nan nan nan nan nan nan nan nan nan nan nan nan 1 1 6 10 14 14 15 4 4 5 21 57 57 67 48 25 12 12 7 10 nan nan nan 3 15 15 25 23 23 16 7 3
nan nan nan nan nan nan nan nan nan nan nan nan nan nan nan nan nan nan nan nan nan nan nan nan nan nan nan nan nan nan nan nan nan nan nan nan nan 0 0 6 11 12 12 0 nan nan nan 2 35 35 56 59 42 23 23 27 2 nan nan nan 1 16 16 30 36 36 25 9 3
nan nan nan nan nan nan nan nan nan nan nan nan nan nan nan nan nan nan nan nan nan nan nan nan nan nan nan nan nan nan nan nan nan nan nan nan nan 0 0 5 4 5 5 nan nan nan nan 6 11 11 20 65 60 50 50 49 4 nan nan nan nan 8 8 19 23 23 16 6 1
nan nan nan nan nan nan nan nan nan nan nan nan nan nan nan nan nan nan nan nan nan nan nan nan nan nan nan nan nan nan nan nan nan nan nan nan nan nan nan 0 nan nan nan nan nan nan 1 9 8 8 13 53 74 62 62 55 17 0 0 nan nan nan nan nan nan nan 0 1 3
nan nan nan nan nan nan nan nan nan nan nan nan nan nan nan nan nan nan nan nan nan nan nan nan nan nan nan nan nan nan nan nan nan nan nan nan nan nan nan nan nan nan nan nan nan nan 2 5 5 5 6 11 42 18 18 16 3 nan nan nan nan nan nan nan nan nan nan 6 7
nan nan nan nan nan nan nan nan nan nan nan nan nan nan nan nan nan nan nan nan nan nan nan nan nan nan nan nan nan nan nan nan nan nan nan nan nan nan nan nan nan nan nan nan nan nan 1 1 1 1 nan nan 3 3 3 0 nan nan nan nan nan nan nan nan nan nan 1 13 9
nan nan nan nan nan nan nan nan nan nan nan nan nan nan nan nan nan nan nan nan nan nan nan nan nan nan nan nan nan nan nan nan nan nan nan nan nan nan nan nan nan nan nan nan nan nan 0 nan nan nan nan nan nan nan nan nan nan nan nan 1 1 1 1 2 6 6 9 6 5
nan nan nan nan nan nan nan nan nan nan nan nan nan nan nan nan nan nan nan nan nan nan nan nan nan nan nan nan nan nan nan nan nan nan nan nan nan nan nan nan nan nan nan nan nan nan 0 nan nan nan nan nan nan nan nan nan nan 1 1 5 8 5 5 5 6 6 6 0 0
nan nan nan nan nan nan nan nan nan nan nan nan nan nan nan nan nan nan nan nan nan nan nan nan nan nan nan nan nan nan nan nan nan nan nan nan nan nan nan nan nan nan nan nan 0 0 2 nan nan nan nan nan nan nan nan nan nan 3 3 4 4 0 0 0 1 1 1 1 1
nan nan nan nan nan nan nan nan nan nan nan nan nan nan nan nan nan nan nan nan nan nan nan nan nan nan nan nan nan nan nan nan nan nan nan nan nan nan nan nan nan nan nan nan 1 1 5 nan nan nan nan nan nan 0 0 1 5 5 5 5 3 1 1 1 1 1 1 1 2
nan nan nan nan nan nan nan nan nan nan nan nan nan nan nan nan nan nan nan nan nan nan nan nan nan nan nan nan nan nan nan nan nan nan nan nan nan nan nan nan nan nan nan nan 2 2 9 2 nan nan nan nan nan 7 7 5 8 5 5 4 2 2 2 3 1 1 1 2 3
nan nan nan nan nan nan nan nan nan nan nan nan nan nan nan nan nan nan nan nan nan nan nan nan nan nan nan nan nan nan nan nan nan nan nan nan nan nan nan nan nan nan nan nan nan nan 3 7 6 6 1 nan 8 11 11 5 5 3 3 2 1 3 3 3 2 2 2 2 3
nan nan nan nan nan nan nan nan nan nan nan nan nan nan nan nan nan nan nan nan nan nan nan nan nan nan nan nan nan nan nan nan nan nan nan nan nan nan nan nan nan nan nan nan nan nan nan 2 8 8 6 4 12 7 7 5 5 4 4 2 1 2 2 5 4 4 3 4 6
nan nan nan nan nan nan nan nan nan nan nan nan nan nan nan nan nan nan nan nan nan nan nan nan nan nan nan nan nan nan nan nan nan nan nan nan nan nan nan nan nan nan nan nan nan nan nan nan nan nan 0 10 12 5 5 7 9 7 7 4 3 5 5 8 8 8 6 6 9
nan nan nan nan nan nan nan nan nan nan nan nan nan nan nan nan nan nan nan nan nan nan nan nan nan nan nan nan nan nan nan nan nan nan nan nan nan nan nan nan nan nan nan nan nan nan nan nan nan nan nan 4 10 10 10 12 14 11 11 8 6 12 12 11 9 9 10 8 2
nan nan nan nan nan nan nan nan nan nan nan nan nan nan nan nan nan nan nan nan nan nan nan nan nan nan nan nan nan nan nan nan nan nan nan nan nan nan nan nan nan nan nan nan nan nan nan nan nan nan 0 6 16 16 16 15 17 15 15 11 12 16 16 18 16 16 13 15 9
nan nan nan nan nan nan nan nan nan nan nan nan nan nan nan nan nan nan nan nan nan nan nan nan nan nan nan nan nan nan nan nan nan nan nan nan nan nan nan nan nan nan nan nan nan nan nan nan 0 0 3 9 20 15 15 16 21 18 18 15 16 20 20 21 21 21 17 21 18
nan nan nan nan nan nan nan nan nan nan nan nan nan nan nan nan nan nan nan nan nan nan nan nan nan nan nan nan nan nan nan nan nan nan nan nan nan nan nan nan nan nan nan nan nan nan nan 0 3 3 8 15 27 13 13 20 21 16 16 16 22 23 23 22 21 21 21 17 16